Location: Makanda
(37.6176°N, 89.2090°W)
Time: 08:23:05
(UTC+00:00)

Meteor 1-4 Rocket - Pass Details

Date: 23 September 2019
Orbit: 449 x 504 km, 81.2° (Epoch: 21 October)

Event Time Altitude Azimuth Distance (km) Brightness Sun altitude
Rises 00:20:58 0° 14° (NNE) 2,492 6.1 -6.2°
Reaches altitude 10° 00:24:15 10° 48° (NE) 1,600 4.8 -6.8°
Maximum altitude 00:25:36 12° 71° (ENE) 1,484 4.5 -7.1°
Drops below altitude 10° 00:26:57 10° 94° (E) 1,587 4.5 -7.3°
Enters shadow 00:27:10 10° 97° (E) 1,621 4.5 -7.4°
